Regional Weather Roundup
Issued by NWS Goodland, KS

Home | Current Version | Previous Version | Text Only | Print | Product List | Glossary On
Versions: 1 2 3 4 5 6 7 8 9 10 11 12 13 14 15 16 17 18 19 20 21 22 23 24 25 26 27 28 29 30 31 32 33 34 35 36 37 38 39 40 41 42 43 44 45 46 47 48 49 50
000
ASUS43 KGLD 210559
RWRGLD

GOODLAND FORECAST AREA HOURLY WEATHER ROUNDUP
NATIONAL WEATHER SERVICE GOODLAND KS
1200 AM MDT TUE APR 21 2015

...OFFICIAL OBSERVATIONS...

CITY           SKY/WX    TMP DP  RH WIND       PRES   REMARKS
GOODLAND KS    CLEAR     40  31  70 SW8       29.94S
HILL CITY KS   FAIR      41  31  67 SW6       29.91S
IMPERIAL NEB   CLEAR     37  28  70 W8        29.90S
MCCOOK NEB     CLEAR     38  30  73 W7        29.89R
AKRON CO       CLEAR     36  27  69 SW7       29.93S
BURLINGTON CO  CLEAR     39  32  76 W5        29.94F
LIMON CO       CLEAR     31  28  89 N5        29.98S
$$

...UNOFFICIAL OBSERVATIONS...

CITY           SKY/WX    TMP DP  RH WIND       PRES   REMARKS
COLBY KS       CLEAR     36  36 100 SW7       29.93S
GOVE KS          N/A     36  32  85 MISG        N/A
LENORA KS        N/A     42  32  68 MISG        N/A
NORTON KS      CLEAR     37  27  65 SW6       29.89R
SHARON SPRINGS   N/A     44  38  79 MISG        N/A
KIT CARSON CO    N/A     43  34  71 MISG        N/A
$$


USA.gov is the U.S. government's official web portal to all federal, state and local government web resources and services.